Year,Month,Day,Hour,Minute,Value (Times are PST for temperature in C)
2006,07,22,00,00,21.90
2006,07,22,00,01,21.90
2006,07,22,00,02,21.90
2006,07,22,00,03,22.00
2006,07,22,00,04,22.00
2006,07,22,00,05,22.10
2006,07,22,00,06,22.10
2006,07,22,00,07,22.10
2006,07,22,00,08,22.10
2006,07,22,00,09,22.20
2006,07,22,00,10,22.20
2006,07,22,00,11,22.20
2006,07,22,00,12,22.20
2006,07,22,00,13,22.20
2006,07,22,00,14,22.30
2006,07,22,00,15,22.30
2006,07,22,00,16,22.30
2006,07,22,00,17,22.30
2006,07,22,00,18,22.30
2006,07,22,00,19,22.30
2006,07,22,00,20,22.30
2006,07,22,00,21,22.40
2006,07,22,00,22,22.40
2006,07,22,00,23,22.50
2006,07,22,00,24,22.50
2006,07,22,00,25,22.50
2006,07,22,00,26,22.60
2006,07,22,00,27,22.60
2006,07,22,00,28,22.70
2006,07,22,00,29,22.70
2006,07,22,00,30,22.70
2006,07,22,00,31,22.70
2006,07,22,00,32,22.70
2006,07,22,00,33,22.70
2006,07,22,00,34,22.70
2006,07,22,00,35,22.70
2006,07,22,00,36,22.70
2006,07,22,00,37,22.70
2006,07,22,00,38,22.60
2006,07,22,00,39,22.60
2006,07,22,00,40,22.60
2006,07,22,00,41,22.50
2006,07,22,00,42,22.50
2006,07,22,00,43,22.40
2006,07,22,00,44,22.40
2006,07,22,00,45,22.40
2006,07,22,00,46,22.30
2006,07,22,00,47,22.30
2006,07,22,00,48,22.30
2006,07,22,00,49,22.20
2006,07,22,00,50,22.20
2006,07,22,00,51,22.20
2006,07,22,00,52,22.20
2006,07,22,00,53,22.20
2006,07,22,00,54,22.20
2006,07,22,00,55,22.20
2006,07,22,00,56,22.20
2006,07,22,00,57,22.20
2006,07,22,00,58,22.30
2006,07,22,00,59,22.40
2006,07,22,01,00,22.40
2006,07,22,01,01,22.50
2006,07,22,01,02,22.60
2006,07,22,01,03,22.70
2006,07,22,01,04,22.70
2006,07,22,01,05,22.70
2006,07,22,01,06,22.80
2006,07,22,01,07,22.80
2006,07,22,01,08,22.80
2006,07,22,01,09,22.80
2006,07,22,01,10,22.70
2006,07,22,01,11,22.70
2006,07,22,01,12,22.70
2006,07,22,01,13,22.70
2006,07,22,01,14,22.70
2006,07,22,01,15,22.70
2006,07,22,01,16,22.60
2006,07,22,01,17,22.60
2006,07,22,01,18,22.60
2006,07,22,01,19,22.60
2006,07,22,01,20,22.50
2006,07,22,01,21,22.50
2006,07,22,01,22,22.50
2006,07,22,01,23,22.50
2006,07,22,01,24,22.50
2006,07,22,01,25,22.60
2006,07,22,01,26,22.60
2006,07,22,01,27,22.60
2006,07,22,01,28,22.60
2006,07,22,01,29,22.60
2006,07,22,01,30,22.60
2006,07,22,01,31,22.60
2006,07,22,01,32,22.60
2006,07,22,01,33,22.60
2006,07,22,01,34,22.60
2006,07,22,01,35,22.60
2006,07,22,01,36,22.60
2006,07,22,01,37,22.60
2006,07,22,01,38,22.60
2006,07,22,01,39,22.60
2006,07,22,01,40,22.60
2006,07,22,01,41,22.60
2006,07,22,01,42,22.60
2006,07,22,01,43,22.60
2006,07,22,01,44,22.60
2006,07,22,01,45,22.60
2006,07,22,01,46,22.50
2006,07,22,01,47,22.50
2006,07,22,01,48,22.50
2006,07,22,01,49,22.40
2006,07,22,01,50,22.40
2006,07,22,01,51,22.40
2006,07,22,01,52,22.30
2006,07,22,01,53,22.30
2006,07,22,01,54,22.30
2006,07,22,01,55,22.20
2006,07,22,01,56,22.20
2006,07,22,01,57,22.10
2006,07,22,01,58,22.10
2006,07,22,01,59,22.10
2006,07,22,02,00,22.00
2006,07,22,02,01,22.00
2006,07,22,02,02,22.00
2006,07,22,02,03,21.90
2006,07,22,02,04,21.90
2006,07,22,02,05,21.90
2006,07,22,02,06,21.90
2006,07,22,02,07,21.80
2006,07,22,02,08,21.80
2006,07,22,02,09,21.80
2006,07,22,02,10,21.80
2006,07,22,02,11,21.80
2006,07,22,02,12,21.80
2006,07,22,02,13,21.80
2006,07,22,02,14,21.80
2006,07,22,02,15,21.80
2006,07,22,02,16,21.80
2006,07,22,02,17,21.80
2006,07,22,02,18,21.80
2006,07,22,02,19,21.80
2006,07,22,02,20,21.80
2006,07,22,02,21,21.80
2006,07,22,02,22,21.90
2006,07,22,02,23,22.00
2006,07,22,02,24,22.00
2006,07,22,02,25,22.10
2006,07,22,02,26,22.10
2006,07,22,02,27,22.20
2006,07,22,02,28,22.20
2006,07,22,02,29,22.20
2006,07,22,02,30,22.30
2006,07,22,02,31,22.40
2006,07,22,02,32,22.60
2006,07,22,02,33,22.60
2006,07,22,02,34,22.70
2006,07,22,02,35,22.70
2006,07,22,02,36,22.70
2006,07,22,02,37,22.70
2006,07,22,02,38,22.60
2006,07,22,02,39,22.70
2006,07,22,02,40,22.70
2006,07,22,02,41,22.80
2006,07,22,02,42,22.80
2006,07,22,02,43,22.80
2006,07,22,02,44,22.90
2006,07,22,02,45,22.90
2006,07,22,02,46,22.90
2006,07,22,02,47,22.90
2006,07,22,02,48,22.90
2006,07,22,02,49,22.90
2006,07,22,02,50,22.90
2006,07,22,02,51,22.90
2006,07,22,02,52,22.80
2006,07,22,02,53,22.80
2006,07,22,02,54,22.80
2006,07,22,02,55,22.80
2006,07,22,02,56,22.70
2006,07,22,02,57,22.70
2006,07,22,02,58,22.60
2006,07,22,02,59,22.60
2006,07,22,03,00,22.50
2006,07,22,03,01,22.50
2006,07,22,03,02,22.40
2006,07,22,03,03,22.40
2006,07,22,03,04,22.40
2006,07,22,03,05,22.30
2006,07,22,03,06,22.30
2006,07,22,03,07,22.30
2006,07,22,03,08,22.20
2006,07,22,03,09,22.20
2006,07,22,03,10,22.20
2006,07,22,03,11,22.20
2006,07,22,03,12,22.20
2006,07,22,03,13,22.10
2006,07,22,03,14,22.10
2006,07,22,03,15,22.10
2006,07,22,03,16,22.10
2006,07,22,03,17,22.10
2006,07,22,03,18,22.10
2006,07,22,03,19,22.10
2006,07,22,03,20,22.10
2006,07,22,03,21,22.10
2006,07,22,03,22,22.10
2006,07,22,03,23,22.10
2006,07,22,03,24,22.10
2006,07,22,03,25,22.10
2006,07,22,03,26,22.10
2006,07,22,03,27,22.10
2006,07,22,03,28,22.10
2006,07,22,03,29,22.10
2006,07,22,03,30,22.10
2006,07,22,03,31,22.10
2006,07,22,03,32,22.10
2006,07,22,03,33,22.10
2006,07,22,03,34,22.10
2006,07,22,03,35,22.00
2006,07,22,03,36,22.00
2006,07,22,03,37,22.00
2006,07,22,03,38,21.90
2006,07,22,03,39,21.90
2006,07,22,03,40,21.80
2006,07,22,03,41,21.80
2006,07,22,03,42,21.80
2006,07,22,03,43,21.70
2006,07,22,03,44,21.70
2006,07,22,03,45,21.60
2006,07,22,03,46,21.60
2006,07,22,03,47,21.60
2006,07,22,03,48,21.50
2006,07,22,03,49,21.50
2006,07,22,03,50,21.50
2006,07,22,03,51,21.40
2006,07,22,03,52,21.40
2006,07,22,03,53,21.40
2006,07,22,03,54,21.40
2006,07,22,03,55,21.40
2006,07,22,03,56,21.40
2006,07,22,03,57,21.40
2006,07,22,03,58,21.40
2006,07,22,03,59,21.30
2006,07,22,04,00,21.30
2006,07,22,04,01,21.30
2006,07,22,04,02,21.30
2006,07,22,04,03,21.30
2006,07,22,04,04,21.30
2006,07,22,04,05,21.30
2006,07,22,04,06,21.30
2006,07,22,04,07,21.30
2006,07,22,04,08,21.30
2006,07,22,04,09,21.30
2006,07,22,04,10,21.30
2006,07,22,04,11,21.30
2006,07,22,04,12,21.30
2006,07,22,04,13,21.30
2006,07,22,04,14,21.30
2006,07,22,04,15,21.30
2006,07,22,04,16,21.30
2006,07,22,04,17,21.20
2006,07,22,04,18,21.20
2006,07,22,04,19,21.20
2006,07,22,04,20,21.10
2006,07,22,04,21,21.10
2006,07,22,04,22,21.00
2006,07,22,04,23,20.90
2006,07,22,04,24,20.90
2006,07,22,04,25,20.80
2006,07,22,04,26,20.70
2006,07,22,04,27,20.60
2006,07,22,04,28,20.60
2006,07,22,04,29,20.50
2006,07,22,04,30,20.40
2006,07,22,04,31,20.40
2006,07,22,04,32,20.40
2006,07,22,04,33,20.30
2006,07,22,04,34,20.30
2006,07,22,04,35,20.30
2006,07,22,04,36,20.30
2006,07,22,04,37,20.30
2006,07,22,04,38,20.30
2006,07,22,04,39,20.30
2006,07,22,04,40,20.30
2006,07,22,04,41,20.30
2006,07,22,04,42,20.30
2006,07,22,04,43,20.30
2006,07,22,04,44,20.30
2006,07,22,04,45,20.30
2006,07,22,04,46,20.30
2006,07,22,04,47,20.30
2006,07,22,04,48,20.30
2006,07,22,04,49,20.30
2006,07,22,04,50,20.20
2006,07,22,04,51,20.20
2006,07,22,04,52,20.20
2006,07,22,04,53,20.20
2006,07,22,04,54,20.20
2006,07,22,04,55,20.20
2006,07,22,04,56,20.20
2006,07,22,04,57,20.10
2006,07,22,04,58,20.10
2006,07,22,04,59,20.10
2006,07,22,05,00,20.10
2006,07,22,05,01,20.10
2006,07,22,05,02,20.00
2006,07,22,05,03,20.00
2006,07,22,05,04,20.00
2006,07,22,05,05,19.90
2006,07,22,05,06,19.90
2006,07,22,05,07,19.90
2006,07,22,05,08,19.90
2006,07,22,05,09,19.90
2006,07,22,05,10,19.90
2006,07,22,05,11,19.90
2006,07,22,05,12,19.90
2006,07,22,05,13,19.90
2006,07,22,05,14,19.90
2006,07,22,05,15,19.90
2006,07,22,05,16,19.90
2006,07,22,05,17,19.90
2006,07,22,05,18,19.90
2006,07,22,05,19,19.90
2006,07,22,05,20,19.90
2006,07,22,05,21,19.90
2006,07,22,05,22,19.90
2006,07,22,05,23,19.90
2006,07,22,05,24,19.90
2006,07,22,05,25,19.80
2006,07,22,05,26,19.80
2006,07,22,05,27,19.80
2006,07,22,05,28,19.70
2006,07,22,05,29,19.60
2006,07,22,05,30,19.50
2006,07,22,05,31,19.40
2006,07,22,05,32,19.20
2006,07,22,05,33,19.00
2006,07,22,05,34,18.90
2006,07,22,05,35,18.80
2006,07,22,05,36,18.70
2006,07,22,05,37,18.60
2006,07,22,05,38,18.50
2006,07,22,05,39,18.40
2006,07,22,05,40,18.40
2006,07,22,05,41,18.30
2006,07,22,05,42,18.30
2006,07,22,05,43,18.20
2006,07,22,05,44,18.20
2006,07,22,05,45,18.20
2006,07,22,05,46,18.20
2006,07,22,05,47,18.20
2006,07,22,05,48,18.10
2006,07,22,05,49,18.10
2006,07,22,05,50,18.10
2006,07,22,05,51,18.20
2006,07,22,05,52,18.20
2006,07,22,05,53,18.20
2006,07,22,05,54,18.30
2006,07,22,05,55,18.30
2006,07,22,05,56,18.40
2006,07,22,05,57,18.50
2006,07,22,05,58,18.50
2006,07,22,05,59,18.60
2006,07,22,06,00,18.60
2006,07,22,06,01,18.60
2006,07,22,06,02,18.60
2006,07,22,06,03,18.70
2006,07,22,06,04,18.70
2006,07,22,06,05,18.70
2006,07,22,06,06,18.70
2006,07,22,06,07,18.70
2006,07,22,06,08,18.70
2006,07,22,06,09,18.70
2006,07,22,06,10,18.70
2006,07,22,06,11,18.70
2006,07,22,06,12,18.70
2006,07,22,06,13,18.70
2006,07,22,06,14,18.70
2006,07,22,06,15,18.70
2006,07,22,06,16,18.70
2006,07,22,06,17,18.70
2006,07,22,06,18,18.70
2006,07,22,06,19,18.70
2006,07,22,06,20,18.70
2006,07,22,06,21,18.70
2006,07,22,06,22,18.70
2006,07,22,06,23,18.70
2006,07,22,06,24,18.70
2006,07,22,06,25,18.80
2006,07,22,06,26,18.80
2006,07,22,06,27,18.80
2006,07,22,06,28,18.80
2006,07,22,06,29,18.90
2006,07,22,06,30,18.90
2006,07,22,06,31,18.90
2006,07,22,06,32,19.00
2006,07,22,06,33,19.00
2006,07,22,06,34,19.00
2006,07,22,06,35,19.00
2006,07,22,06,36,19.10
2006,07,22,06,37,19.10
2006,07,22,06,38,19.10
2006,07,22,06,39,19.10
2006,07,22,06,40,19.20
2006,07,22,06,41,19.20
2006,07,22,06,42,19.20
2006,07,22,06,43,19.20
2006,07,22,06,44,19.20
2006,07,22,06,45,19.20
2006,07,22,06,46,19.30
2006,07,22,06,47,19.30
2006,07,22,06,48,19.30
2006,07,22,06,49,19.30
2006,07,22,06,50,19.40
2006,07,22,06,51,19.40
2006,07,22,06,52,19.40
2006,07,22,06,53,19.50
2006,07,22,06,54,19.50
2006,07,22,06,55,19.60
2006,07,22,06,56,19.60
2006,07,22,06,57,19.60
2006,07,22,06,58,19.70
2006,07,22,06,59,19.70
2006,07,22,07,00,19.70
2006,07,22,07,01,19.80
2006,07,22,07,02,19.80
2006,07,22,07,03,19.90
2006,07,22,07,04,19.90
2006,07,22,07,05,20.00
2006,07,22,07,06,20.00
2006,07,22,07,07,20.00
2006,07,22,07,08,20.10
2006,07,22,07,09,20.10
2006,07,22,07,10,20.20
2006,07,22,07,11,20.20
2006,07,22,07,12,20.20
2006,07,22,07,13,20.30
2006,07,22,07,14,20.30
2006,07,22,07,15,20.30
2006,07,22,07,16,20.30
2006,07,22,07,17,20.40
2006,07,22,07,18,20.40
2006,07,22,07,19,20.40
2006,07,22,07,20,20.40
2006,07,22,07,21,20.50
2006,07,22,07,22,20.50
2006,07,22,07,23,20.50
2006,07,22,07,24,20.50
2006,07,22,07,25,20.60
2006,07,22,07,26,20.60
2006,07,22,07,27,20.60
2006,07,22,07,28,20.60
2006,07,22,07,29,20.60
2006,07,22,07,30,20.60
2006,07,22,07,31,20.60
2006,07,22,07,32,20.60
2006,07,22,07,33,20.60
2006,07,22,07,34,20.60
2006,07,22,07,35,20.60
2006,07,22,07,36,20.60
2006,07,22,07,37,20.60
2006,07,22,07,38,20.60
2006,07,22,07,39,20.60
2006,07,22,07,40,20.60
2006,07,22,07,41,20.70
2006,07,22,07,42,20.70
2006,07,22,07,43,20.70
2006,07,22,07,44,20.80
2006,07,22,07,45,20.80
2006,07,22,07,46,20.80
2006,07,22,07,47,20.80
2006,07,22,07,48,20.90
2006,07,22,07,49,20.90
2006,07,22,07,50,20.90
2006,07,22,07,51,20.90
2006,07,22,07,52,20.90
2006,07,22,07,53,21.00
2006,07,22,07,54,21.00
2006,07,22,07,55,21.10
2006,07,22,07,56,21.10
2006,07,22,07,57,21.10
2006,07,22,07,58,21.10
2006,07,22,07,59,21.20
2006,07,22,08,00,21.20
2006,07,22,08,01,21.20
2006,07,22,08,02,21.30
2006,07,22,08,03,21.30
2006,07,22,08,04,21.40
2006,07,22,08,05,21.40
2006,07,22,08,06,21.50
2006,07,22,08,07,21.60
2006,07,22,08,08,21.60
2006,07,22,08,09,21.60
2006,07,22,08,10,21.70
2006,07,22,08,11,21.70
2006,07,22,08,12,21.70
2006,07,22,08,13,21.80
2006,07,22,08,14,21.80
2006,07,22,08,15,21.80
2006,07,22,08,16,21.80
2006,07,22,08,17,21.80
2006,07,22,08,18,21.80
2006,07,22,08,19,21.80
2006,07,22,08,20,21.80
2006,07,22,08,21,21.80
2006,07,22,08,22,21.80
2006,07,22,08,23,21.70
2006,07,22,08,24,21.70
2006,07,22,08,25,21.70
2006,07,22,08,26,21.70
2006,07,22,08,27,21.70
2006,07,22,08,28,21.80
2006,07,22,08,29,21.80
2006,07,22,08,30,21.80
2006,07,22,08,31,21.80
2006,07,22,08,32,21.80
2006,07,22,08,33,21.80
2006,07,22,08,34,21.90
2006,07,22,08,35,21.90
2006,07,22,08,36,22.00
2006,07,22,08,37,22.00
2006,07,22,08,38,22.10
2006,07,22,08,39,22.10
2006,07,22,08,40,22.20
2006,07,22,08,41,22.30
2006,07,22,08,42,22.30
2006,07,22,08,43,22.40
2006,07,22,08,44,22.50
2006,07,22,08,45,22.50
2006,07,22,08,46,22.60
2006,07,22,08,47,22.70
2006,07,22,08,48,22.70
2006,07,22,08,49,22.80
2006,07,22,08,50,22.90
2006,07,22,08,51,23.00
2006,07,22,08,52,23.20
2006,07,22,08,53,23.30
2006,07,22,08,54,23.40
2006,07,22,08,55,23.60
2006,07,22,08,56,23.70
2006,07,22,08,57,23.80
2006,07,22,08,58,23.90
2006,07,22,08,59,24.10
2006,07,22,09,00,24.10
2006,07,22,09,01,24.20
2006,07,22,09,02,24.20
2006,07,22,09,03,24.40
2006,07,22,09,04,24.50
2006,07,22,09,05,24.60
2006,07,22,09,06,24.70
2006,07,22,09,07,24.70
2006,07,22,09,08,24.70
2006,07,22,09,09,24.60
2006,07,22,09,10,24.50
2006,07,22,09,11,24.30
2006,07,22,09,12,24.00
2006,07,22,09,13,23.70
2006,07,22,09,14,23.30
2006,07,22,09,15,22.90
2006,07,22,09,16,22.70
2006,07,22,09,17,22.50
2006,07,22,09,18,22.30
2006,07,22,09,19,22.30
2006,07,22,09,20,22.20
2006,07,22,09,21,22.10
2006,07,22,09,22,21.90
2006,07,22,09,23,21.80
2006,07,22,09,24,21.80
2006,07,22,09,25,21.80
2006,07,22,09,26,21.80
2006,07,22,09,27,21.70
2006,07,22,09,28,21.70
2006,07,22,09,29,21.70
2006,07,22,09,30,21.70
2006,07,22,09,31,21.70
2006,07,22,09,32,21.70
2006,07,22,09,33,21.70
2006,07,22,09,34,21.80
2006,07,22,09,35,21.80
2006,07,22,09,36,21.90
2006,07,22,09,37,22.00
2006,07,22,09,38,22.00
2006,07,22,09,39,22.10
2006,07,22,09,40,22.10
2006,07,22,09,41,22.10
2006,07,22,09,42,22.10
2006,07,22,09,43,22.10
2006,07,22,09,44,22.00
2006,07,22,09,45,21.90
2006,07,22,09,46,22.00
2006,07,22,09,47,22.00
2006,07,22,09,48,22.00
2006,07,22,09,49,22.10
2006,07,22,09,50,22.10
2006,07,22,09,51,22.10
2006,07,22,09,52,22.20
2006,07,22,09,53,22.20
2006,07,22,09,54,22.30
2006,07,22,09,55,22.40
2006,07,22,09,56,22.60
2006,07,22,09,57,22.70
2006,07,22,09,58,22.80
2006,07,22,09,59,22.90
2006,07,22,10,00,23.00
2006,07,22,10,01,23.20
2006,07,22,10,02,23.30
2006,07,22,10,03,23.50
2006,07,22,10,04,23.60
2006,07,22,10,05,23.70
2006,07,22,10,06,23.80
2006,07,22,10,07,23.90
2006,07,22,10,08,23.90
2006,07,22,10,09,24.00
2006,07,22,10,10,24.10
2006,07,22,10,11,24.10
2006,07,22,10,12,24.20
2006,07,22,10,13,24.30
2006,07,22,10,14,24.40
2006,07,22,10,15,24.50
2006,07,22,10,16,24.60
2006,07,22,10,17,24.70
2006,07,22,10,18,24.80
2006,07,22,10,19,24.90
2006,07,22,10,20,25.10
2006,07,22,10,21,25.20
2006,07,22,10,22,25.20
2006,07,22,10,23,25.30
2006,07,22,10,24,25.30
2006,07,22,10,25,25.30
2006,07,22,10,26,25.30
2006,07,22,10,27,25.40
2006,07,22,10,28,25.50
2006,07,22,10,29,25.60
2006,07,22,10,30,25.70
2006,07,22,10,31,25.70
2006,07,22,10,32,25.80
2006,07,22,10,33,25.80
2006,07,22,10,34,25.90
2006,07,22,10,35,25.80
2006,07,22,10,36,25.60
2006,07,22,10,37,25.60
2006,07,22,10,38,25.60
2006,07,22,10,39,25.50
2006,07,22,10,40,25.40
2006,07,22,10,41,25.30
2006,07,22,10,42,25.30
2006,07,22,10,43,25.30
2006,07,22,10,44,25.40
2006,07,22,10,45,25.50
2006,07,22,10,46,25.50
2006,07,22,10,47,25.60
2006,07,22,10,48,25.50
2006,07,22,10,49,25.40
2006,07,22,10,50,25.40
2006,07,22,10,51,25.30
2006,07,22,10,52,25.30
2006,07,22,10,53,25.30
2006,07,22,10,54,25.30
2006,07,22,10,55,25.30
2006,07,22,10,56,25.30
2006,07,22,10,57,25.30
2006,07,22,10,58,25.30
2006,07,22,10,59,25.30
2006,07,22,11,00,25.30
2006,07,22,11,01,25.40
2006,07,22,11,02,25.40
2006,07,22,11,03,25.40
2006,07,22,11,04,25.40
2006,07,22,11,05,25.30
2006,07,22,11,06,25.20
2006,07,22,11,07,25.10
2006,07,22,11,08,25.00
2006,07,22,11,09,25.00
2006,07,22,11,10,24.90
2006,07,22,11,11,24.90
2006,07,22,11,12,24.90
2006,07,22,11,13,24.90
2006,07,22,11,14,24.90
2006,07,22,11,15,25.00
2006,07,22,11,16,25.10
2006,07,22,11,17,25.30
2006,07,22,11,18,25.40
2006,07,22,11,19,25.40
2006,07,22,11,20,25.40
2006,07,22,11,21,25.40
2006,07,22,11,22,25.40
2006,07,22,11,23,25.40
2006,07,22,11,24,25.40
2006,07,22,11,25,25.40
2006,07,22,11,26,25.40
2006,07,22,11,27,25.50
2006,07,22,11,28,25.60
2006,07,22,11,29,25.70
2006,07,22,11,30,25.70
2006,07,22,11,31,25.80
2006,07,22,11,32,25.80
2006,07,22,11,33,25.90
2006,07,22,11,34,25.90
2006,07,22,11,35,25.90
2006,07,22,11,36,25.90
2006,07,22,11,37,25.80
2006,07,22,11,38,25.60
2006,07,22,11,39,25.50
2006,07,22,11,40,25.50
2006,07,22,11,41,25.40
2006,07,22,11,42,25.40
2006,07,22,11,43,25.30
2006,07,22,11,44,25.30
2006,07,22,11,45,25.30
2006,07,22,11,46,25.20
2006,07,22,11,47,25.30
2006,07,22,11,48,25.30
2006,07,22,11,49,25.40
2006,07,22,11,50,25.40
2006,07,22,11,51,25.40
2006,07,22,11,52,25.50
2006,07,22,11,53,25.50
2006,07,22,11,54,25.40
2006,07,22,11,55,25.30
2006,07,22,11,56,25.40
2006,07,22,11,57,25.40
2006,07,22,11,58,25.50
2006,07,22,11,59,25.60
2006,07,22,12,00,25.70
2006,07,22,12,01,25.80
2006,07,22,12,02,25.80
2006,07,22,12,03,25.80
2006,07,22,12,04,25.90
2006,07,22,12,05,25.80
2006,07,22,12,06,25.90
2006,07,22,12,07,25.90
2006,07,22,12,08,25.90
2006,07,22,12,09,26.00
2006,07,22,12,10,26.10
2006,07,22,12,11,26.10
2006,07,22,12,12,26.20
2006,07,22,12,13,26.20
2006,07,22,12,14,26.30
2006,07,22,12,15,26.40
2006,07,22,12,16,26.50
2006,07,22,12,17,26.60
2006,07,22,12,18,26.70
2006,07,22,12,19,26.90
2006,07,22,12,20,27.00
2006,07,22,12,21,27.10
2006,07,22,12,22,27.20
2006,07,22,12,23,27.30
2006,07,22,12,24,27.50
2006,07,22,12,25,27.60
2006,07,22,12,26,27.70
2006,07,22,12,27,27.80
2006,07,22,12,28,27.80
2006,07,22,12,29,27.80
2006,07,22,12,30,27.80
2006,07,22,12,31,27.90
2006,07,22,12,32,28.00
2006,07,22,12,33,28.00
2006,07,22,12,34,28.00
2006,07,22,12,35,28.00
2006,07,22,12,36,27.90
2006,07,22,12,37,28.00
2006,07,22,12,38,27.90
2006,07,22,12,39,28.00
2006,07,22,12,40,28.10
2006,07,22,12,41,28.10
2006,07,22,12,42,28.00
2006,07,22,12,43,28.00
2006,07,22,12,44,28.00
2006,07,22,12,45,28.10
2006,07,22,12,46,28.20
2006,07,22,12,47,28.30
2006,07,22,12,48,28.40
2006,07,22,12,49,28.50
2006,07,22,12,50,28.60
2006,07,22,12,51,28.70
2006,07,22,12,52,28.70
2006,07,22,12,53,28.70
2006,07,22,12,54,28.80
2006,07,22,12,55,28.80
2006,07,22,12,56,28.80
2006,07,22,12,57,28.80
2006,07,22,12,58,28.80
2006,07,22,12,59,28.80
2006,07,22,13,00,28.80
2006,07,22,13,01,28.80
2006,07,22,13,02,28.80
2006,07,22,13,03,28.90
2006,07,22,13,04,29.00
2006,07,22,13,05,29.00
2006,07,22,13,06,29.10
2006,07,22,13,07,29.10
2006,07,22,13,08,29.20
2006,07,22,13,09,29.40
2006,07,22,13,10,29.60
2006,07,22,13,11,29.70
2006,07,22,13,12,29.80
2006,07,22,13,13,29.80
2006,07,22,13,14,29.90
2006,07,22,13,15,30.10
2006,07,22,13,16,30.20
2006,07,22,13,17,30.30
2006,07,22,13,18,30.40
2006,07,22,13,19,30.50
2006,07,22,13,20,30.50
2006,07,22,13,21,30.40
2006,07,22,13,22,30.40
2006,07,22,13,23,30.30
2006,07,22,13,24,30.10
2006,07,22,13,25,30.00
2006,07,22,13,26,29.90
2006,07,22,13,27,30.00
2006,07,22,13,28,30.20
2006,07,22,13,29,30.30
2006,07,22,13,30,30.40
2006,07,22,13,31,30.40
2006,07,22,13,32,30.40
2006,07,22,13,33,30.40
2006,07,22,13,34,30.40
2006,07,22,13,35,30.40
2006,07,22,13,36,30.50
2006,07,22,13,37,30.60
2006,07,22,13,38,30.60
2006,07,22,13,39,30.60
2006,07,22,13,40,30.70
2006,07,22,13,41,30.80
2006,07,22,13,42,30.80
2006,07,22,13,43,30.80
2006,07,22,13,44,30.80
2006,07,22,13,45,30.80
2006,07,22,13,46,30.80
2006,07,22,13,47,30.80
2006,07,22,13,48,30.80
2006,07,22,13,49,30.90
2006,07,22,13,50,30.90
2006,07,22,13,51,30.90
2006,07,22,13,52,30.80
2006,07,22,13,53,30.70
2006,07,22,13,54,30.70
2006,07,22,13,55,30.60
2006,07,22,13,56,30.60
2006,07,22,13,57,30.60
2006,07,22,13,58,30.60
2006,07,22,13,59,30.60
2006,07,22,14,00,30.60
2006,07,22,14,01,30.50
2006,07,22,14,02,30.50
2006,07,22,14,03,30.60
2006,07,22,14,04,30.60
2006,07,22,14,05,30.60
2006,07,22,14,06,30.50
2006,07,22,14,07,30.40
2006,07,22,14,08,30.20
2006,07,22,14,09,30.00
2006,07,22,14,10,30.00
2006,07,22,14,11,30.10
2006,07,22,14,12,30.20
2006,07,22,14,13,30.30
2006,07,22,14,14,30.50
2006,07,22,14,15,30.50
2006,07,22,14,16,30.50
2006,07,22,14,17,30.60
2006,07,22,14,18,30.60
2006,07,22,14,19,30.70
2006,07,22,14,20,30.70
2006,07,22,14,21,30.70
2006,07,22,14,22,30.60
2006,07,22,14,23,30.40
2006,07,22,14,24,30.10
2006,07,22,14,25,30.00
2006,07,22,14,26,30.00
2006,07,22,14,27,29.80
2006,07,22,14,28,29.70
2006,07,22,14,29,29.70
2006,07,22,14,30,29.70
2006,07,22,14,31,29.70
2006,07,22,14,32,29.80
2006,07,22,14,33,29.80
2006,07,22,14,34,29.80
2006,07,22,14,35,29.80
2006,07,22,14,36,29.90
2006,07,22,14,37,29.90
2006,07,22,14,38,30.00
2006,07,22,14,39,29.90
2006,07,22,14,40,29.80
2006,07,22,14,41,29.60
2006,07,22,14,42,29.30
2006,07,22,14,43,29.10
2006,07,22,14,44,28.90
2006,07,22,14,45,28.70
2006,07,22,14,46,28.60
2006,07,22,14,47,28.50
2006,07,22,14,48,28.40
2006,07,22,14,49,28.20
2006,07,22,14,50,28.10
2006,07,22,14,51,28.00
2006,07,22,14,52,27.90
2006,07,22,14,53,27.80
2006,07,22,14,54,27.70
2006,07,22,14,55,27.60
2006,07,22,14,56,27.40
2006,07,22,14,57,27.30
2006,07,22,14,58,27.20
2006,07,22,14,59,27.20
2006,07,22,15,00,27.20
2006,07,22,15,01,27.10
2006,07,22,15,02,26.90
2006,07,22,15,03,26.70
2006,07,22,15,04,26.70
2006,07,22,15,05,26.80
2006,07,22,15,06,26.90
2006,07,22,15,07,27.10
2006,07,22,15,08,27.20
2006,07,22,15,09,27.30
2006,07,22,15,10,27.40
2006,07,22,15,11,27.50
2006,07,22,15,12,27.60
2006,07,22,15,13,27.70
2006,07,22,15,14,27.60
2006,07,22,15,15,27.60
2006,07,22,15,16,27.50
2006,07,22,15,17,27.30
2006,07,22,15,18,27.10
2006,07,22,15,19,26.90
2006,07,22,15,20,26.70
2006,07,22,15,21,26.50
2006,07,22,15,22,26.30
2006,07,22,15,23,26.20
2006,07,22,15,24,26.20
2006,07,22,15,25,26.20
2006,07,22,15,26,26.20
2006,07,22,15,27,26.10
2006,07,22,15,28,26.10
2006,07,22,15,29,26.20
2006,07,22,15,30,26.30
2006,07,22,15,31,26.40
2006,07,22,15,32,26.60
2006,07,22,15,33,26.70
2006,07,22,15,34,26.90
2006,07,22,15,35,27.10
2006,07,22,15,36,27.30
2006,07,22,15,37,27.40
2006,07,22,15,38,27.40
2006,07,22,15,39,27.40
2006,07,22,15,40,27.30
2006,07,22,15,41,27.20
2006,07,22,15,42,27.20
2006,07,22,15,43,27.10
2006,07,22,15,44,27.10
2006,07,22,15,45,27.10
2006,07,22,15,46,27.20
2006,07,22,15,47,27.30
2006,07,22,15,48,27.40
2006,07,22,15,49,27.50
2006,07,22,15,50,27.50
2006,07,22,15,51,27.60
2006,07,22,15,52,27.60
2006,07,22,15,53,27.60
2006,07,22,15,54,27.60
2006,07,22,15,55,27.60
2006,07,22,15,56,28.10
2006,07,22,15,57,28.20
2006,07,22,15,58,28.30
2006,07,22,15,59,28.40
2006,07,22,16,00,28.50
2006,07,22,16,01,28.40
2006,07,22,16,02,28.50
2006,07,22,16,03,28.50
2006,07,22,16,04,28.50
2006,07,22,16,05,28.60
2006,07,22,16,06,28.60
2006,07,22,16,07,28.60
2006,07,22,16,08,28.80
2006,07,22,16,09,28.90
2006,07,22,16,10,29.10
2006,07,22,16,11,29.30
2006,07,22,16,12,29.40
2006,07,22,16,13,29.50
2006,07,22,16,14,29.60
2006,07,22,16,15,29.70
2006,07,22,16,16,29.70
2006,07,22,16,17,29.70
2006,07,22,16,18,29.60
2006,07,22,16,19,29.60
2006,07,22,16,20,29.60
2006,07,22,16,21,29.60
2006,07,22,16,22,29.60
2006,07,22,16,23,29.60
2006,07,22,16,24,29.60
2006,07,22,16,25,29.70
2006,07,22,16,26,29.70
2006,07,22,16,27,29.70
2006,07,22,16,28,29.70
2006,07,22,16,29,29.70
2006,07,22,16,30,29.80
2006,07,22,16,31,29.70
2006,07,22,16,32,29.60
2006,07,22,16,33,29.50
2006,07,22,16,34,29.30
2006,07,22,16,35,29.20
2006,07,22,16,36,29.00
2006,07,22,16,37,28.80
2006,07,22,16,38,28.80
2006,07,22,16,39,28.70
2006,07,22,16,40,28.70
2006,07,22,16,41,28.80
2006,07,22,16,42,29.00
2006,07,22,16,43,29.10
2006,07,22,16,44,29.30
2006,07,22,16,45,29.40
2006,07,22,16,46,29.50
2006,07,22,16,47,29.50
2006,07,22,16,48,29.40
2006,07,22,16,49,29.50
2006,07,22,16,50,29.50
2006,07,22,16,51,29.60
2006,07,22,16,52,29.50
2006,07,22,16,53,29.40
2006,07,22,16,54,29.40
2006,07,22,16,55,29.30
2006,07,22,16,56,29.40
2006,07,22,16,57,29.40
2006,07,22,16,58,29.50
2006,07,22,16,59,29.40
2006,07,22,17,00,29.50
2006,07,22,17,01,29.50
2006,07,22,17,02,29.60
2006,07,22,17,03,29.60
2006,07,22,17,04,29.70
2006,07,22,17,05,29.70
2006,07,22,17,06,29.90
2006,07,22,17,07,30.00
2006,07,22,17,08,30.10
2006,07,22,17,09,30.00
2006,07,22,17,10,30.00
2006,07,22,17,11,29.90
2006,07,22,17,12,29.90
2006,07,22,17,13,29.90
2006,07,22,17,14,29.90
2006,07,22,17,15,29.90
2006,07,22,17,16,29.90
2006,07,22,17,17,29.90
2006,07,22,17,18,30.00
2006,07,22,17,19,30.00